Orbital Elements at Epoch 2459000.5 (2020-May-31.0) TDB
Reference: JPL 18 (heliocentric ecliptic J2000)
Element | Value | Uncertainty (1-sigma) | Units |
e | .1904475486375674 | 4.8817e-08 | |
a | 2.243104669116165 | 8.4857e-09 | au |
q | 1.81591088354551 | 1.087e-07 | au |
i | 3.372587487152967 | 5.9894e-06 | deg |
node | 18.56564951617915 | 6.5658e-05 | deg |
peri | 315.8346093760481 | 6.7084e-05 | deg |
M | 8.913833637023281 | 1.4796e-05 | deg |
tp | 2458970.116712751274 (2020-Apr-30.61671275) | 5.0342e-05 | TDB |
period | 1227.079599523925 3.36 | 6.9631e-06 1.906e-08 | d yr |
n | .2933795005146126 | 1.6648e-09 | deg/d |
Q | 2.67029845468682 | 1.0102e-08 | au |
|
| | Orbit Determination Parameters
Additional Information
|